Location: Unspecified
(0.0000°N, 0.0000°E)
Time: 01:46:51
(UTC+00:00)

Vanguard 1 Rocket - Visible Passes

Search period start: 17 July 2018 00:00
Search period end: 27 July 2018 00:00
Orbit: 652 x 4225 km, 34.3° (Epoch: 16 July)

Date Brightness Start Highest point End Pass type
(mag) Time Alt. Az. Time Alt. Az. Time Alt. Az.
17 Jul 11.0 02:16:07 33° SSE 02:19:28 33° SSE 02:41:27 10° E visible
17 Jul 10.7 04:33:25 20° SW 04:54:46 75° SE 05:17:09 10° ENE visible
17 Jul 9.7 19:51:20 10° SW 19:54:47 15° SSW 19:57:15 13° S visible
18 Jul 11.4 01:09:05 21° SE 01:09:05 21° SE 01:20:41 10° ESE visible
18 Jul 10.8 03:26:23 35° SSW 03:38:50 56° SE 04:02:48 10° ENE visible
18 Jul 8.8 18:38:50 10° W 18:42:42 24° SSW 18:47:56 10° SSE visible
19 Jul 10.8 02:19:22 38° SSE 02:22:52 40° SE 02:46:10 10° E visible
19 Jul 10.6 04:36:40 22° SW 04:57:25 86° SE 05:20:17 10° NE visible
20 Jul 11.3 01:12:21 25° SE 01:12:21 25° SE 01:26:31 10° E visible
20 Jul 10.6 03:29:39 40° SSW 03:41:37 66° SE 04:06:20 10° ENE visible
20 Jul 9.4 18:43:45 10° SW 18:46:26 14° SSW 18:49:38 10° S visible
21 Jul 10.6 02:22:39 46° SSE 02:25:57 47° SE 02:50:24 10° ENE visible
21 Jul 10.6 04:39:58 23° WSW 05:00:00 82° NW 05:23:12 10° NE visible
22 Jul 11.1 01:15:39 30° SE 01:15:39 30° SE 01:31:48 10° E visible
22 Jul 10.5 03:32:57 45° SW 03:44:15 77° SE 04:09:33 10° ENE visible
23 Jul 11.7 00:08:38 11° ESE 00:08:38 11° ESE 00:09:54 10° ESE visible
23 Jul 10.5 02:25:56 55° SSE 02:28:46 57° SE 02:54:12 10° ENE visible
23 Jul 10.7 04:43:14 23° WSW 05:02:36 70° NW 05:25:58 10° NE visible
24 Jul 11.0 01:18:55 36° ESE 01:18:55 36° ESE 01:36:31 10° E visible
24 Jul 10.4 03:36:12 48° SW 03:46:50 89° SE 04:12:32 10° NE visible
25 Jul 11.6 00:11:52 15° ESE 00:11:52 15° ESE 00:15:53 10° E visible
25 Jul 10.3 02:29:10 65° SSE 02:31:25 67° SE 02:57:36 10° ENE visible
25 Jul 10.8 04:46:27 22° WSW 05:05:20 60° NW 05:28:36 10° NE visible
26 Jul 10.8 01:22:06 42° ESE 01:22:06 42° ESE 01:40:40 10° ENE visible
26 Jul 10.3 03:39:23 49° WSW 03:49:26 79° NW 04:15:18 10° NE visible
